Location:  
MeteoStar


Sort by weather type Sort by elevation Sort by visibility Sort from west to east north Sort from north to south Alphabetically Sort from strongest wind speed Sort from lowest to highest pressure Sort from highest to lowest dew point temperature Sort coolest temperatures to warmest Sort warm temperatures to coolest
 Metric

Current Observations for United Kingdom sorted by weather type

Trawscoed21:00ZShowers47 4651023.7W 4 45206
Eglinton / Londonderr20:50ZLight Showers48 46191021.1SW 7 4529
Belfast / Harbour20:50ZLight Rain48 45191021.1WSW 5 4616
Capel Curig21:00ZDrizzle46 4541023.2SW 7 42708
Manchester Airport20:50ZDrizzle45 451.751022.2N 2 45226
Castlederg21:00ZLight Drizzle47 4671021.9WSW 4 45167
Eskdalemuir21:00ZLight Drizzle41 410.371021.4SE 1 41793
Leeds And Bradford20:50ZLight Drizzle43 412.251021.4N 1 43682
Liverpool Airport 20:50ZLight Drizzle46 4561022.2SSW 4 4485
Warcop Range21:00ZFog42 40251021.5SSE 1 42744
Walney Island21:00ZFog43 432.251021.7WSW 1 4349
Dunkeswell Aerodrome21:00ZMist43 4251025.3WNW 5 40826
Bingley21:00ZMist43 4341021.9W 3 43859
Leconfield20:50ZCloudy45 41131021.1WSW 3 4519
Benson20:50ZCloudy45 43131023.2SSE 4 43206
Leuchars20:50ZCloudy43 39251020.1W 4 4139
Farnborough20:50ZCloudy41 39151024.2SSW 2 41213
Cardiff-Wales Airport20:50ZCloudy45 4571024.2WNW 7 41219
Boscombe Down20:50ZCloudy45 43161024.3WSW 2 45406
Cranwell20:50ZMostly Cloudy45 41201022.2WSW 6 42219
Topcliffe Royal Air Force Base 20:50ZMostly Cloudy45 43151022.2SW 7 4191
Waddington20:50ZMostly Cloudy46 41151022.2SW 6 43223
Linton-On-Ouse20:50ZMostly Cloudy46 41131021.1SW 4 4452
Wittering20:50ZMostly Cloudy45 41201022.2WSW 6 42275
Leeming20:50ZMostly Cloudy45 41301021.2SW 6 42131
Coningsby Royal Air Force Base20:50ZMostly Cloudy43 41201022.1SW 1 4322
Northolt20:53ZMostly Cloudy45 41201023.2WSW 3 45124
Middle Wallop20:50ZMostly Cloudy46 43201024.2W 7 42298
Odiham20:50ZMostly Cloudy45 41151023.3S 4 43403
Brize Norton20:50ZMostly Cloudy46 43201023.2W 3 46288
Fairford Royal Air Force Base20:56ZMostly Cloudy44 42251023.9WSW 6 41285
Stornoway20:50ZMostly Cloudy43 41201017.1SW 5 4029
Prestwick Airport20:50ZMostly Cloudy45 4551021.1CALM4565
Edinburgh Airport20:50ZMostly Cloudy45 4151020.2WSW 4 43134
Glasgow Airport20:50ZMostly Cloudy45 4351020.1WSW 3 4526
Shawbury20:50ZMostly Cloudy46 45251022.2WSW 7 42249
Pembrey Sands20:50ZMostly Cloudy48 4625SW 6 459
Spadeadam20:50ZMostly Cloudy41 39251020.7WNW 3 411066
East Midlands20:50ZMostly Cloudy45 43251022.3S 4 43308
Newcastle 20:50ZMostly Cloudy43 39251021.2S 2 43265
Isle Of Man / Ronaldsway Airport20:50ZMostly Cloudy46 46251021.1N 3 4655
Hawarden20:50ZMostly Cloudy46 45171023.1N 1 4632
Humberside20:50ZMostly Cloudy45 41201022.2SSW 4 43101
Blackpool Airport20:50ZMostly Cloudy46 45201022.1W 6 4332
London / Heathrow Airport20:50ZMostly Cloudy45 41201024.1WSW 5 4278
Jersey Airport20:50ZMostly Cloudy46 45201025.2NW 7 42275
Guernsey Airport20:50ZMostly Cloudy46 43251025.3NW 7 42334
Bournemouth Airport20:50ZMostly Cloudy45 41131024.1W 4 4336
Luton Airport 20:50ZMostly Cloudy41 3761023.3SSW 4 38524
Bristol / Lulsgate 20:50ZMostly Cloudy45 4341024.4WSW 5 42620
Yeovilton20:50ZMostly Cloudy45 4571024.2WNW 3 4575
St Athan Royal Air Force Base20:50ZMostly Cloudy46 4591024.2W 7 42164
Culdrose20:50ZMostly Cloudy46 4591026.2NW 5 44255
Belfast / Aldergrove Airport20:50ZMostly Cloudy46 45191021.2W 7 42265
Camborne21:00ZCloudy47 45111026.5WNW 6 44285
Exeter Airport20:50ZPartly Cloudy45 43251025.2N 3 4598
Benbecula20:50ZPartly Cloudy46 4551018.1SSW 7 4219
Valley20:50ZPartly Cloudy46 45121022.1W 3 463
Tees-Side20:50ZPartly Cloudy43 37251021.2SSW 2 43121
London City Airport20:50ZPartly Cloudy48 3961024.1WSW 4 4716
Southampton / Weather Centre20:50ZPartly Cloudy46 39131024.1N 1 4629
Birmingham / Airport20:50ZPartly Cloudy46 41191023.3W 4 44324
Lough Fea21:00ZClear45 4561022WNW 5 42738
Church Lawford21:00ZClear44 42111023.2SSW 2 44351
Sennybridge21:00ZClear44 4341024.3WSW 4 421007
Nottingham Weather Centre21:00ZClear44 42191023SSW 3 44383
Tulloch Bridge21:00ZClear41 39301020.4SSW 5 38777
Lerwick21:00ZClear35 31201018.2SSW 6 30269
Wattisham20:50ZClear37 34251023.2SW 4 34285
Mildenhall Royal Air Force Base20:56ZClear40 40171023.4S 3 4032
Lakenheath Royal Air Force Base20:56ZClear41 36121023CALM4132
Stansted Airport20:50ZClear41 37251023.3WSW 2 41347
Lossiemouth20:50ZClear39 36251018.1S 5 3542
Boulmer20:50ZClear39 36351020.2WSW 7 3475
Kinloss20:50ZClear41 37301018.1SSW 5 3822
Inverness / Dalcross20:50ZClear39 37121018.1SW 7 3429
Aberdeen / Dyce20:50ZClear39 36121019.2SE 4 36213
Wick20:50ZClear43 39131017.2S 6 39127
Sumburgh Cape 20:50ZClear43 34131018.1SSW 8 3816
Kirkwall Airport20:50ZClear39 36131017.2S 7 3468
Lydd Airport 20:50ZClear41 39201024.1WSW 4 389
Biggin Hill 20:50ZClear43 36201024.4SSW 5 40600